星链-32226 (STARLINK-32226)

导读

STARLINK-32226是美国太空探索技术公司(SpaceX)于2024年8月12日发射的第二代星链(Starlink)卫星,属于星链全球卫星互联网星座的扩容部署卫星。该卫星运行于低地球轨道(LEO),标配星间激光通信终端,可支持高速星间路由,为全球尤其是基础设施匮乏地区提供低延迟、高速率宽带互联网服务,助力星链实现全球无缝覆盖,进一步巩固SpaceX在低轨卫星互联网领域的部署规模。

基本信息
目录编号:
60426
目录名称:
STARLINK-32226
国际标识:
2024-144B
轨道中心:
EARTH
卫星名称:
星链-32226 (STARLINK-32226)
卫星全名:
星链-32226 (STARLINK-32226)
卫星状态:
在轨 (已飞行674 天)
发射日期:
2024-08-12 UTC
国别 :
美国 (US)
星等 :
--
轨道信息
数据来源 国际轨道数据
星历时间: 2026-06-17T11:10:02+0800
19小时前
查看轨道信息
半长轴: 6840.851km
偏心率: 0.0001295
轨道倾角: 53.162°
近地点辐角 92.338°
升交点赤经 115.279°
平近点角 267.777°
近地点: 461.828km
远地点: 463.6km
周期: 93.848分钟
每日圈数: 15.343967
详细信息
卫星平台:
Starlink v2.0 mini
运营商:
太空探索技术公司
运营商所在国:
美国
制造商(研发单位):
太空探索技术公司
制造商所在国:
美国
使用方式:
暂无
卫星简介
星链(Starlink)计划是由太空探索技术公司(SpaceX)提出的一个巨型低轨卫星互联网星座项目,计划在2019年至2024年间在太空搭建由约1.2万颗卫星组成的“星链”网络,其中1584颗将部署在地球上空550千米处的近地轨道,并从2020年开始工作。该卫星仍在工作。
2D轨道图
3D轨道图
轨道高度分析图
轨道倾角分析图
轨道综合分析图
查看轨道综合分析图